,,,PA_Meas_PMT16A,,PR_Meas_QMR101_102,,RH_Meas_QMH101,,SR_Meas_QMS101,,TA_Meas_QMH101,,GenWind,,GenWind,
date,time,status,PA,status,PR,status,RH,status,SR,status,TA,status,DirAvg,status,SpdAvg,
2008-04-29, 00:00:04,VALID,1006.88,VALID,0,VALID,94.3001,VALID,0,VALID,24.5691,VALID,52,VALID,0.0046875,
2008-04-29, 00:01:04,VALID,1006.87,VALID,0,VALID,94.3229,VALID,0,VALID,24.5886,VALID,52,VALID,0.00273437,
2008-04-29, 00:02:04,VALID,1006.88,VALID,0,VALID,94.3077,VALID,0,VALID,24.5886,VALID,52,VALID,0.134375,
2008-04-29, 00:03:04,VALID,1006.84,VALID,0,VALID,94.2467,VALID,0,VALID,24.5905,VALID,52,VALID,0,
2008-04-29, 00:04:04,VALID,1006.81,VALID,0,VALID,94.1933,VALID,0.105969,VALID,24.5691,VALID,52,VALID,0.271094,
2008-04-29, 00:05:04,VALID,1006.81,VALID,0,VALID,94.1857,VALID,0,VALID,24.5905,VALID,75,VALID,0.409766,
2008-04-29, 00:06:04,VALID,1006.8,VALID,0,VALID,94.2391,VALID,0,VALID,24.5905,VALID,76,VALID,0.406641,
2008-04-29, 00:07:04,VALID,1006.8,VALID,0,VALID,94.2238,VALID,0,VALID,24.5691,VALID,77,VALID,0.234766,
2008-04-29, 00:08:04,VALID,1006.8,VALID,0,VALID,94.2543,VALID,0.105969,VALID,24.5691,VALID,77,VALID,0.285156,
2008-04-29, 00:09:04,VALID,1006.78,VALID,0,VALID,94.2238,VALID,0,VALID,24.571,VALID,77,VALID,0.239063,
2008-04-29, 00:10:04,VALID,1006.79,VALID,0,VALID,94.1933,VALID,0,VALID,24.571,VALID,78,VALID,0.317969,
2008-04-29, 00:11:04,VALID,1006.8,VALID,0,VALID,94.1857,VALID,0,VALID,24.5496,VALID,78,VALID,0.270312,
2008-04-29, 00:12:04,VALID,1006.78,VALID,0,VALID,94.1628,VALID,0,VALID,24.5515,VALID,78,VALID,0.115234,
2008-04-29, 00:13:04,VALID,1006.79,VALID,0,VALID,94.1399,VALID,0.105969,VALID,24.5515,VALID,78,VALID,0.320703,
2008-04-29, 00:14:04,VALID,1006.76,VALID,0,VALID,94.0789,VALID,0.105969,VALID,24.5515,VALID,78,VALID,0.175,
2008-04-29, 00:15:04,VALID,1006.77,VALID,0,VALID,94.1171,VALID,0,VALID,24.571,VALID,78,VALID,0.314063,
2008-04-29, 00:16:04,VALID,1006.77,VALID,0,VALID,94.0789,VALID,0.105969,VALID,24.5301,VALID,74,VALID,0.156641,
2008-04-29, 00:17:04,VALID,1006.77,VALID,0,VALID,94.0789,VALID,0,VALID,24.5515,VALID,74,VALID,0.134375,
2008-04-29, 00:18:04,VALID,1006.76,VALID,0,VALID,94.0942,VALID,0.105969,VALID,24.532,VALID,74,VALID,0.205078,
2008-04-29, 00:19:04,VALID,1006.74,VALID,0,VALID,94.0865,VALID,0.105969,VALID,24.5125,VALID,74,VALID,0.177344,
2008-04-29, 00:20:04,VALID,1006.72,VALID,0,VALID,94.056,VALID,0.105969,VALID,24.5301,VALID,74,VALID,0.108594,
2008-04-29, 00:21:04,VALID,1006.76,VALID,0,VALID,94.1247,VALID,0.105969,VALID,24.5301,VALID,74,VALID,0,
2008-04-29, 00:22:04,VALID,1006.73,VALID,0,VALID,94.0789,VALID,0,VALID,24.532,VALID,74,VALID,0.116406,
2008-04-29, 00:23:04,VALID,1006.7,VALID,0,VALID,94.056,VALID,0.105969,VALID,24.5106,VALID,74,VALID,0,
2008-04-29, 00:24:04,VALID,1006.7,VALID,0,VALID,94.0484,VALID,0,VALID,24.532,VALID,74,VALID,0,
2008-04-29, 00:25:04,VALID,1006.69,VALID,0,VALID,94.0713,VALID,0.105969,VALID,24.5106,VALID,74,VALID,0.00273437,
2008-04-29, 00:26:04,VALID,1006.68,VALID,0,VALID,94.1476,VALID,0.105969,VALID,24.532,VALID,74,VALID,0.267188,
2008-04-29, 00:27:04,VALID,1006.68,VALID,0,VALID,94.2009,VALID,0.105969,VALID,24.532,VALID,112,VALID,0.436328,
2008-04-29, 00:28:04,VALID,1006.65,VALID,0,VALID,94.1323,VALID,0.105969,VALID,24.532,VALID,128,VALID,0.717578,
2008-04-29, 00:29:04,VALID,1006.64,VALID,0,VALID,94.1704,VALID,0.105969,VALID,24.5125,VALID,128,VALID,0.684766,
2008-04-29, 00:30:04,VALID,1006.6,VALID,0,VALID,94.2238,VALID,0.105969,VALID,24.5125,VALID,128,VALID,0.607422,
2008-04-29, 00:31:04,VALID,1006.6,VALID,0,VALID,94.3153,VALID,0.105969,VALID,24.532,VALID,128,VALID,0.609766,
2008-04-29, 00:32:04,VALID,1006.59,VALID,0,VALID,94.3839,VALID,0.105969,VALID,24.5106,VALID,103,VALID,0.789453,
2008-04-29, 00:33:04,VALID,1006.57,VALID,0,VALID,94.3763,VALID,0.105969,VALID,24.5515,VALID,108,VALID,0.624609,
2008-04-29, 00:34:04,VALID,1006.54,VALID,0,VALID,94.3839,VALID,0.105969,VALID,24.5496,VALID,108,VALID,0.327734,
2008-04-29, 00:35:04,VALID,1006.52,VALID,0,VALID,94.2848,VALID,0.105969,VALID,24.571,VALID,79,VALID,0.496875,
2008-04-29, 00:36:04,VALID,1006.49,VALID,0,VALID,94.2619,VALID,0.105969,VALID,24.571,VALID,58,VALID,0.360938,
2008-04-29, 00:37:04,VALID,1006.45,VALID,0,VALID,94.2086,VALID,0.105969,VALID,24.5496,VALID,58,VALID,0.325391,
2008-04-29, 00:38:04,VALID,1006.43,VALID,0,VALID,94.1247,VALID,0.105969,VALID,24.5301,VALID,57,VALID,0.169141,
2008-04-29, 00:39:04,VALID,1006.41,VALID,0,VALID,94.056,VALID,0.105969,VALID,24.5515,VALID,57,VALID,0,
2008-04-29, 00:40:04,VALID,1006.4,VALID,0,VALID,93.9722,VALID,0.105969,VALID,24.5106,VALID,57,VALID,0,
2008-04-29, 00:41:04,VALID,1006.4,VALID,0,VALID,93.934,VALID,0.105969,VALID,24.4911,VALID,57,VALID,0.00117188,
2008-04-29, 00:42:04,VALID,1006.4,VALID,0,VALID,93.9264,VALID,0.105969,VALID,24.5106,VALID,114,VALID,0.388281,
2008-04-29, 00:43:04,VALID,1006.36,VALID,0,VALID,93.9798,VALID,0.105969,VALID,24.5515,VALID,174,VALID,0.425781,
2008-04-29, 00:44:04,VALID,1006.35,VALID,0,VALID,93.9722,VALID,0.105969,VALID,24.4717,VALID,175,VALID,0.545313,
2008-04-29, 00:45:04,VALID,1006.32,VALID,0,VALID,94.0255,VALID,0.105969,VALID,24.4132,VALID,175,VALID,0.391016,
2008-04-29, 00:46:04,VALID,1006.3,VALID,0,VALID,94.1018,VALID,0,VALID,24.454,VALID,175,VALID,0.255078,
2008-04-29, 00:47:04,VALID,1006.26,VALID,0,VALID,94.2009,VALID,0.105969,VALID,24.4132,VALID,128,VALID,0.407031,
2008-04-29, 00:48:04,VALID,1006.24,VALID,0,VALID,94.2924,VALID,0.105969,VALID,24.4345,VALID,112,VALID,0.374609,
2008-04-29, 00:49:04,VALID,1006.21,VALID,0,VALID,94.3839,VALID,0.105969,VALID,24.4132,VALID,112,VALID,0.291016,
2008-04-29, 00:50:04,VALID,1006.24,VALID,0,VALID,94.445,VALID,0.105969,VALID,24.4345,VALID,109,VALID,0.345703,
2008-04-29, 00:51:04,VALID,1006.21,VALID,0,VALID,94.4678,VALID,0,VALID,24.415,VALID,95,VALID,0.305859,
2008-04-29, 00:52:04,VALID,1006.21,VALID,0,VALID,94.4145,VALID,0,VALID,24.3956,VALID,95,VALID,0.261328,
2008-04-29, 00:53:04,VALID,1006.2,VALID,0,VALID,94.4373,VALID,0.105969,VALID,24.3937,VALID,95,VALID,0.169141,
2008-04-29, 00:54:04,VALID,1006.19,VALID,0,VALID,94.4297,VALID,0.105969,VALID,24.3547,VALID,95,VALID,0.0261719,
2008-04-29, 00:55:04,VALID,1006.18,VALID,0,VALID,94.4221,VALID,0.105969,VALID,24.3547,VALID,95,VALID,0,
2008-04-29, 00:56:04,VALID,1006.21,VALID,0,VALID,94.4907,VALID,0.105969,VALID,24.3547,VALID,115,VALID,0.365234,
2008-04-29, 00:57:04,VALID,1006.22,VALID,0,VALID,94.4831,VALID,0.105969,VALID,24.3547,VALID,185,VALID,0.468359,
2008-04-29, 00:58:04,VALID,1006.2,VALID,0,VALID,94.4755,VALID,0.105969,VALID,24.2963,VALID,197,VALID,0.466406,
2008-04-29, 00:59:04,VALID,1006.21,VALID,0,VALID,94.5212,VALID,0.105969,VALID,24.3158,VALID,197,VALID,0.233203,
2008-04-29, 01:00:04,VALID,1006.22,VALID,0,VALID,94.5517,VALID,0.105969,VALID,24.3176,VALID,197,VALID,0.168359,
2008-04-29, 01:01:04,VALID,1006.19,VALID,0,VALID,94.5898,VALID,0.105969,VALID,24.2981,VALID,197,VALID,0,
2008-04-29, 01:02:04,VALID,1006.14,VALID,0,VALID,94.6432,VALID,0.105969,VALID,24.3176,VALID,197,VALID,0.0429688,
2008-04-29, 01:03:04,VALID,1006.14,VALID,0,VALID,94.6585,VALID,0.105969,VALID,24.2981,VALID,197,VALID,0.0597656,
2008-04-29, 01:04:04,VALID,1006.11,VALID,0,VALID,94.7042,VALID,0.105969,VALID,24.2786,VALID,197,VALID,0.121484,
2008-04-29, 01:05:04,VALID,1006.1,VALID,0,VALID,94.7119,VALID,0.105969,VALID,24.2786,VALID,197,VALID,0.260938,
2008-04-29, 01:06:04,VALID,1006.1,VALID,0,VALID,94.7119,VALID,0.105969,VALID,24.2183,VALID,181,VALID,0.4875,
2008-04-29, 01:07:04,VALID,1006.04,VALID,0,VALID,94.7195,VALID,0.105969,VALID,24.2396,VALID,181,VALID,0.594531,
2008-04-29, 01:08:04,VALID,1006.07,VALID,0,VALID,94.7652,VALID,0.105969,VALID,24.2183,VALID,181,VALID,0.622656,
2008-04-29, 01:09:04,VALID,1006.09,VALID,0,VALID,94.8262,VALID,0.105969,VALID,24.2396,VALID,181,VALID,0.322656,
2008-04-29, 01:10:04,VALID,1006.09,VALID,0,VALID,94.8796,VALID,0.105969,VALID,24.2202,VALID,181,VALID,0.167187,
2008-04-29, 01:11:04,VALID,1006.09,VALID,0,VALID,94.9025,VALID,0.105969,VALID,24.1988,VALID,181,VALID,0.0625,
2008-04-29, 01:12:04,VALID,1006.07,VALID,0,VALID,94.933,VALID,0,VALID,24.1793,VALID,181,VALID,0,
2008-04-29, 01:13:04,VALID,1006.06,VALID,0,VALID,94.9864,VALID,0.105969,VALID,24.2007,VALID,181,VALID,0,
2008-04-29, 01:14:04,VALID,1006.02,VALID,0,VALID,94.994,VALID,0,VALID,24.2007,VALID,181,VALID,0,
2008-04-29, 01:15:04,VALID,1006.02,VALID,0,VALID,95.0016,VALID,0,VALID,24.1599,VALID,181,VALID,0.257422,
2008-04-29, 01:16:04,VALID,1006.03,VALID,0,VALID,95.0474,VALID,0.105969,VALID,24.1599,VALID,181,VALID,0.280859,
2008-04-29, 01:17:04,VALID,1006.02,VALID,0,VALID,95.0855,VALID,0,VALID,24.1812,VALID,181,VALID,0.226172,
2008-04-29, 01:18:04,VALID,1006.02,VALID,0,VALID,95.1084,VALID,0,VALID,24.1812,VALID,181,VALID,0.0527344,
2008-04-29, 01:19:04,VALID,1006.03,VALID,0,VALID,95.1389,VALID,0.105969,VALID,24.1812,VALID,181,VALID,0,
2008-04-29, 01:20:04,VALID,1006.04,VALID,0,VALID,95.1465,VALID,0,VALID,24.1617,VALID,181,VALID,0,
2008-04-29, 01:21:04,VALID,1006.05,VALID,0,VALID,95.1847,VALID,0,VALID,24.1812,VALID,181,VALID,0,
2008-04-29, 01:22:04,VALID,1006.06,VALID,0,VALID,95.1999,VALID,0,VALID,24.1812,VALID,181,VALID,0.190234,
2008-04-29, 01:23:04,VALID,1006.02,VALID,0,VALID,95.1999,VALID,0,VALID,24.1793,VALID,181,VALID,0.153125,
2008-04-29, 01:24:04,VALID,1006.04,VALID,0,VALID,95.1847,VALID,0,VALID,24.1793,VALID,181,VALID,0.113281,
2008-04-29, 01:25:04,VALID,1006.05,VALID,0,VALID,95.1847,VALID,0.105969,VALID,24.1812,VALID,181,VALID,0,
2008-04-29, 01:26:04,VALID,1006.04,VALID,0,VALID,95.1999,VALID,0,VALID,24.1599,VALID,181,VALID,0,
2008-04-29, 01:27:04,VALID,1006.02,VALID,0,VALID,95.177,VALID,0,VALID,24.1812,VALID,181,VALID,0,
2008-04-29, 01:28:04,VALID,1006.03,VALID,0,VALID,95.2152,VALID,0,VALID,24.1599,VALID,181,VALID,0,
2008-04-29, 01:29:04,VALID,1006.03,VALID,0,VALID,95.2457,VALID,0,VALID,24.1617,VALID,181,VALID,0,
2008-04-29, 01:30:04,VALID,1006.05,VALID,0,VALID,95.1923,VALID,0,VALID,24.1617,VALID,181,VALID,0,
2008-04-29, 01:31:04,VALID,1006.06,VALID,0,VALID,95.1923,VALID,0,VALID,24.1422,VALID,181,VALID,0.250781,
2008-04-29, 01:32:04,VALID,1006.07,VALID,0,VALID,95.2533,VALID,0,VALID,24.1227,VALID,181,VALID,0.289844,
2008-04-29, 01:33:04,VALID,1006.07,VALID,0,VALID,95.2838,VALID,0,VALID,24.1422,VALID,181,VALID,0.305469,
2008-04-29, 01:34:04,VALID,1006.07,VALID,0,VALID,95.2457,VALID,0,VALID,24.1209,VALID,181,VALID,0.365234,
2008-04-29, 01:35:04,VALID,1006.06,VALID,0,VALID,95.2533,VALID,0,VALID,24.1227,VALID,181,VALID,0.296484,
2008-04-29, 01:36:04,VALID,1006.04,VALID,0,VALID,95.2838,VALID,0,VALID,24.1014,VALID,181,VALID,0.160547,
2008-04-29, 01:37:04,VALID,1006.05,VALID,0,VALID,95.2685,VALID,0.105969,VALID,24.1014,VALID,181,VALID,0,
2008-04-29, 01:38:04,VALID,1006.04,VALID,0,VALID,95.2533,VALID,0,VALID,24.1032,VALID,181,VALID,0,
2008-04-29, 01:39:04,VALID,1006.06,VALID,0,VALID,95.2609,VALID,0,VALID,24.0819,VALID,181,VALID,0,
2008-04-29, 01:40:04,VALID,1006.05,VALID,0,VALID,95.3067,VALID,0,VALID,24.1032,VALID,181,VALID,0,
2008-04-29, 01:41:04,VALID,1006.04,VALID,0,VALID,95.3829,VALID,0,VALID,24.1032,VALID,181,VALID,0,
2008-04-29, 01:42:04,VALID,1006.05,VALID,0,VALID,95.3677,VALID,0,VALID,24.1227,VALID,181,VALID,0,
2008-04-29, 01:43:04,VALID,1006.07,VALID,0,VALID,95.3524,VALID,0,VALID,24.0624,VALID,181,VALID,0,
2008-04-29, 01:44:04,VALID,1006.06,VALID,0,VALID,95.2762,VALID,0.105969,VALID,24.0837,VALID,181,VALID,0,
2008-04-29, 01:45:04,VALID,1006.06,VALID,0,VALID,95.2457,VALID,0,VALID,24.0643,VALID,181,VALID,0,
2008-04-29, 01:46:04,VALID,1006.08,VALID,0,VALID,95.2075,VALID,0,VALID,24.0448,VALID,181,VALID,0,
2008-04-29, 01:47:04,VALID,1006.11,VALID,0,VALID,95.2228,VALID,0,VALID,24.0448,VALID,181,VALID,0,
2008-04-29, 01:48:04,VALID,1006.14,VALID,0,VALID,95.2685,VALID,0,VALID,24.0253,VALID,181,VALID,0,
2008-04-29, 01:49:04,VALID,1006.15,VALID,0,VALID,95.3677,VALID,0,VALID,24.0253,VALID,181,VALID,0,
2008-04-29, 01:50:04,VALID,1006.14,VALID,0,VALID,95.4439,VALID,0,VALID,24.0235,VALID,181,VALID,0,
2008-04-29, 01:51:04,VALID,1006.17,VALID,0,VALID,95.4744,VALID,0,VALID,24.0643,VALID,181,VALID,0,
2008-04-29, 01:52:04,VALID,1006.15,VALID,0,VALID,95.4287,VALID,0,VALID,24.0643,VALID,181,VALID,0,
2008-04-29, 01:53:04,VALID,1006.16,VALID,0,VALID,95.3982,VALID,0,VALID,24.0429,VALID,181,VALID,0,
2008-04-29, 01:54:04,VALID,1006.16,VALID,0,VALID,95.3524,VALID,0,VALID,24.0253,VALID,181,VALID,0,
2008-04-29, 01:55:04,VALID,1006.18,VALID,0,VALID,95.3295,VALID,0,VALID,24.0253,VALID,178,VALID,0,
2008-04-29, 01:56:04,VALID,1006.19,VALID,0,VALID,95.2762,VALID,0,VALID,23.9455,VALID,64,VALID,0,
2008-04-29, 01:57:04,VALID,1006.21,VALID,0,VALID,95.2533,VALID,0,VALID,23.9668,VALID,64,VALID,0,
2008-04-29, 01:58:04,VALID,1006.2,VALID,0,VALID,95.2914,VALID,0,VALID,23.9668,VALID,64,VALID,0,
2008-04-29, 01:59:04,VALID,1006.19,VALID,0,VALID,95.36,VALID,0,VALID,23.9473,VALID,64,VALID,0,
2008-04-29, 02:00:04,VALID,1006.23,VALID,0,VALID,95.3829,VALID,0,VALID,23.9473,VALID,64,VALID,0,
2008-04-29, 02:01:04,VALID,1006.2,VALID,0,VALID,95.3905,VALID,0,VALID,23.926,VALID,64,VALID,0,
2008-04-29, 02:02:04,VALID,1006.2,VALID,0,VALID,95.4211,VALID,0,VALID,23.9473,VALID,42,VALID,0.494922,
2008-04-29, 02:03:04,VALID,1006.21,VALID,0,VALID,95.4744,VALID,0,VALID,23.9473,VALID,22,VALID,0.58125,
2008-04-29, 02:04:04,VALID,1006.24,VALID,0,VALID,95.5049,VALID,0,VALID,23.9278,VALID,22,VALID,0.473828,
2008-04-29, 02:05:04,VALID,1006.26,VALID,0,VALID,95.5278,VALID,0,VALID,23.9473,VALID,22,VALID,0.408203,
2008-04-29, 02:06:04,VALID,1006.26,VALID,0,VALID,95.4516,VALID,0,VALID,23.9084,VALID,22,VALID,0.298828,
2008-04-29, 02:07:04,VALID,1006.27,VALID,0,VALID,95.4592,VALID,0,VALID,23.9084,VALID,22,VALID,0.171875,
2008-04-29, 02:08:04,VALID,1006.29,VALID,0,VALID,95.4668,VALID,0.105969,VALID,23.8889,VALID,22,VALID,0,
2008-04-29, 02:09:04,VALID,1006.29,VALID,0,VALID,95.4744,VALID,0,VALID,23.8889,VALID,22,VALID,0,
2008-04-29, 02:10:04,VALID,1006.29,VALID,0,VALID,95.4592,VALID,0.105969,VALID,23.8694,VALID,22,VALID,0,
2008-04-29, 02:11:04,VALID,1006.3,VALID,0,VALID,95.4439,VALID,0,VALID,23.8499,VALID,22,VALID,0,
2008-04-29, 02:12:04,VALID,1006.3,VALID,0,VALID,95.4211,VALID,0,VALID,23.8304,VALID,22,VALID,0,
2008-04-29, 02:13:04,VALID,1006.28,VALID,0,VALID,95.4592,VALID,0,VALID,23.8091,VALID,22,VALID,0,
2008-04-29, 02:14:04,VALID,1006.26,VALID,0,VALID,95.4973,VALID,0,VALID,23.8304,VALID,22,VALID,0.240625,
2008-04-29, 02:15:04,VALID,1006.26,VALID,0,VALID,95.5431,VALID,0,VALID,23.8109,VALID,21,VALID,0.475781,
2008-04-29, 02:16:04,VALID,1006.26,VALID,0,VALID,95.5888,VALID,0,VALID,23.8304,VALID,10,VALID,0.553906,
2008-04-29, 02:17:04,VALID,1006.24,VALID,0,VALID,95.5736,VALID,0,VALID,23.8499,VALID,6,VALID,0.507422,
2008-04-29, 02:18:04,VALID,1006.26,VALID,0,VALID,95.5354,VALID,0,VALID,23.8109,VALID,6,VALID,0.443359,
2008-04-29, 02:19:04,VALID,1006.25,VALID,0,VALID,95.5354,VALID,0,VALID,23.7896,VALID,6,VALID,0.423047,
2008-04-29, 02:20:04,VALID,1006.26,VALID,0,VALID,95.5507,VALID,0,VALID,23.8109,VALID,6,VALID,0.212891,
2008-04-29, 02:21:04,VALID,1006.24,VALID,0,VALID,95.5278,VALID,0,VALID,23.7914,VALID,6,VALID,0,
2008-04-29, 02:22:04,VALID,1006.2,VALID,0,VALID,95.5431,VALID,0,VALID,23.7914,VALID,6,VALID,0,
2008-04-29, 02:23:04,VALID,1006.17,VALID,0,VALID,95.5659,VALID,0,VALID,23.772,VALID,6,VALID,0,
2008-04-29, 02:24:04,VALID,1006.16,VALID,0,VALID,95.5431,VALID,0,VALID,23.7525,VALID,6,VALID,0,
2008-04-29, 02:25:04,VALID,1006.14,VALID,0,VALID,95.5583,VALID,0,VALID,23.7525,VALID,6,VALID,0,
2008-04-29, 02:26:04,VALID,1006.07,VALID,0,VALID,95.5583,VALID,0,VALID,23.7525,VALID,6,VALID,0,
2008-04-29, 02:27:04,VALID,1006.12,VALID,0,VALID,95.5736,VALID,0,VALID,23.7525,VALID,6,VALID,0,
2008-04-29, 02:28:04,VALID,1006.13,VALID,0,VALID,95.6269,VALID,0,VALID,23.7312,VALID,6,VALID,0.280078,
2008-04-29, 02:29:04,VALID,1006.14,VALID,0,VALID,95.7337,VALID,0,VALID,23.8109,VALID,6,VALID,0.207422,
2008-04-29, 02:30:04,VALID,1006.16,VALID,0,VALID,95.749,VALID,0.105969,VALID,23.8091,VALID,6,VALID,0,
2008-04-29, 02:31:04,VALID,1006.15,VALID,0,VALID,95.7566,VALID,0,VALID,23.8499,VALID,6,VALID,0,
2008-04-29, 02:32:04,VALID,1006.17,VALID,0,VALID,95.7642,VALID,0,VALID,23.8499,VALID,6,VALID,0,
2008-04-29, 02:33:04,VALID,1006.16,VALID,0,VALID,95.7642,VALID,0,VALID,23.8481,VALID,6,VALID,0,
2008-04-29, 02:34:04,VALID,1006.16,VALID,0,VALID,95.7871,VALID,0,VALID,23.8694,VALID,6,VALID,0.115625,
2008-04-29, 02:35:04,VALID,1006.14,VALID,0,VALID,95.7032,VALID,0,VALID,23.8481,VALID,6,VALID,0.241016,
2008-04-29, 02:36:04,VALID,1006.14,VALID,0,VALID,95.6956,VALID,0.105969,VALID,23.8499,VALID,6,VALID,0.292188,
2008-04-29, 02:37:04,VALID,1006.11,VALID,0,VALID,95.6803,VALID,0.105969,VALID,23.8499,VALID,6,VALID,0.198828,
2008-04-29, 02:38:04,VALID,1006.11,VALID,0,VALID,95.6117,VALID,0,VALID,23.8304,VALID,6,VALID,0.161328,
2008-04-29, 02:39:04,VALID,1006.12,VALID,0,VALID,95.5736,VALID,0,VALID,23.7914,VALID,6,VALID,0.0875,
2008-04-29, 02:40:04,VALID,1006.1,VALID,0,VALID,95.5812,VALID,0,VALID,23.7914,VALID,6,VALID,0,
2008-04-29, 02:41:04,VALID,1006.1,VALID,0,VALID,95.5736,VALID,0,VALID,23.7701,VALID,6,VALID,0,
2008-04-29, 02:42:04,VALID,1006.09,VALID,0,VALID,95.6346,VALID,0,VALID,23.7914,VALID,6,VALID,0.00273437,
2008-04-29, 02:43:04,VALID,1006.06,VALID,0,VALID,95.6803,VALID,0,VALID,23.7914,VALID,6,VALID,0.149609,
2008-04-29, 02:44:04,VALID,1006.05,VALID,0,VALID,95.688,VALID,0,VALID,23.8109,VALID,6,VALID,0.178906,
2008-04-29, 02:45:04,VALID,1006.03,VALID,0,VALID,95.6956,VALID,0,VALID,23.8109,VALID,6,VALID,0,
2008-04-29, 02:46:04,VALID,1006.05,VALID,0,VALID,95.6727,VALID,0,VALID,23.8109,VALID,360,VALID,0,
2008-04-29, 02:47:04,VALID,1006.03,VALID,0,VALID,95.6498,VALID,0,VALID,23.8109,VALID,354,VALID,0,
2008-04-29, 02:48:04,VALID,1006.03,VALID,0,VALID,95.6041,VALID,0,VALID,23.772,VALID,354,VALID,0,
2008-04-29, 02:49:04,VALID,1006.04,VALID,0,VALID,95.6193,VALID,0,VALID,23.772,VALID,354,VALID,0,
2008-04-29, 02:50:04,VALID,1006.06,VALID,0,VALID,95.6193,VALID,0,VALID,23.7525,VALID,354,VALID,0,
2008-04-29, 02:51:04,VALID,1006.07,VALID,0,VALID,95.5964,VALID,0,VALID,23.7117,VALID,354,VALID,0,
2008-04-29, 02:52:04,VALID,1006.07,VALID,0,VALID,95.5888,VALID,0.105969,VALID,23.7135,VALID,354,VALID,0,
2008-04-29, 02:53:04,VALID,1006.1,VALID,0,VALID,95.5812,VALID,0,VALID,23.7135,VALID,354,VALID,0,
2008-04-29, 02:54:04,VALID,1006.07,VALID,0,VALID,95.6117,VALID,0,VALID,23.6745,VALID,36,VALID,0,
2008-04-29, 02:55:04,VALID,1006.09,VALID,0,VALID,95.6346,VALID,0,VALID,23.7135,VALID,47,VALID,0,
2008-04-29, 02:56:04,VALID,1006.06,VALID,0,VALID,95.6117,VALID,0,VALID,23.6745,VALID,54,VALID,0,
2008-04-29, 02:57:04,VALID,1006.07,VALID,0,VALID,95.5888,VALID,0.105969,VALID,23.6338,VALID,54,VALID,0,
2008-04-29, 02:58:04,VALID,1006.05,VALID,0,VALID,95.5888,VALID,0,VALID,23.655,VALID,54,VALID,0,
2008-04-29, 02:59:04,VALID,1006.05,VALID,0,VALID,95.5964,VALID,0.105969,VALID,23.6356,VALID,54,VALID,0,
2008-04-29, 03:00:04,VALID,1006.03,VALID,0,VALID,95.5888,VALID,0.105969,VALID,23.6161,VALID,54,VALID,0,
2008-04-29, 03:01:04,VALID,1006.04,VALID,0,VALID,95.5964,VALID,0,VALID,23.6161,VALID,54,VALID,0,
2008-04-29, 03:02:04,VALID,1006.04,VALID,0,VALID,95.6269,VALID,0,VALID,23.6161,VALID,54,VALID,0,
2008-04-29, 03:03:04,VALID,1006.05,VALID,0,VALID,95.6574,VALID,0,VALID,23.5966,VALID,54,VALID,0,
2008-04-29, 03:04:04,VALID,1006.04,VALID,0,VALID,95.6422,VALID,0,VALID,23.5966,VALID,54,VALID,0,
2008-04-29, 03:05:04,VALID,1006.03,VALID,0,VALID,95.6651,VALID,0.105969,VALID,23.5966,VALID,54,VALID,0,
2008-04-29, 03:06:04,VALID,1006.04,VALID,0,VALID,95.688,VALID,0,VALID,23.6356,VALID,54,VALID,0,
2008-04-29, 03:07:04,VALID,1006.02,VALID,0,VALID,95.7108,VALID,0.105969,VALID,23.6356,VALID,54,VALID,0,
2008-04-29, 03:08:04,VALID,1006.02,VALID,0,VALID,95.688,VALID,0,VALID,23.6161,VALID,54,VALID,0,
2008-04-29, 03:09:04,VALID,1006.02,VALID,0,VALID,95.749,VALID,0,VALID,23.5966,VALID,54,VALID,0,
2008-04-29, 03:10:04,VALID,1006.05,VALID,0,VALID,95.81,VALID,0.105969,VALID,23.6568,VALID,54,VALID,0,
2008-04-29, 03:11:04,VALID,1006.04,VALID,0,VALID,95.8405,VALID,0.105969,VALID,23.655,VALID,54,VALID,0,
2008-04-29, 03:12:04,VALID,1006,VALID,0,VALID,95.8557,VALID,0.105969,VALID,23.6532,VALID,54,VALID,0,
2008-04-29, 03:13:04,VALID,1006.02,VALID,0,VALID,95.8176,VALID,0.105969,VALID,23.655,VALID,54,VALID,0.184766,
2008-04-29, 03:14:04,VALID,1006.02,VALID,0,VALID,95.7871,VALID,0.105969,VALID,23.6745,VALID,54,VALID,0.180859,
2008-04-29, 03:15:04,VALID,1006.03,VALID,0,VALID,95.7718,VALID,0,VALID,23.655,VALID,54,VALID,0,
2008-04-29, 03:16:04,VALID,1006.04,VALID,0,VALID,95.7566,VALID,0.105969,VALID,23.655,VALID,54,VALID,0,
2008-04-29, 03:17:04,VALID,1006.05,VALID,0,VALID,95.7337,VALID,0.105969,VALID,23.6356,VALID,54,VALID,0.00078125,
2008-04-29, 03:18:04,VALID,1006.05,VALID,0,VALID,95.7337,VALID,0.105969,VALID,23.6532,VALID,54,VALID,0.104297,
2008-04-29, 03:19:04,VALID,1006.01,VALID,0,VALID,95.749,VALID,0.105969,VALID,23.6161,VALID,54,VALID,0,
2008-04-29, 03:20:04,VALID,1006,VALID,0,VALID,95.7337,VALID,0.105969,VALID,23.5753,VALID,54,VALID,0,
2008-04-29, 03:21:04,VALID,1005.96,VALID,0,VALID,95.749,VALID,0.105969,VALID,23.5966,VALID,54,VALID,0,
2008-04-29, 03:22:04,VALID,1005.97,VALID,0,VALID,95.7566,VALID,0.105969,VALID,23.5771,VALID,54,VALID,0.245312,
2008-04-29, 03:23:04,VALID,1005.96,VALID,0,VALID,95.749,VALID,0.105969,VALID,23.5576,VALID,54,VALID,0.176953,
2008-04-29, 03:24:04,VALID,1005.95,VALID,0,VALID,95.7413,VALID,0,VALID,23.5576,VALID,54,VALID,0.150781,
2008-04-29, 03:25:04,VALID,1005.96,VALID,0,VALID,95.7337,VALID,0.105969,VALID,23.5381,VALID,54,VALID,0.0984375,
2008-04-29, 03:26:04,VALID,1005.97,VALID,0,VALID,95.7413,VALID,0.105969,VALID,23.5169,VALID,54,VALID,0,
2008-04-29, 03:27:04,VALID,1006,VALID,0,VALID,95.749,VALID,0.105969,VALID,23.5186,VALID,54,VALID,0,
2008-04-29, 03:28:04,VALID,1006.04,VALID,0,VALID,95.7566,VALID,0.105969,VALID,23.5186,VALID,54,VALID,0,
2008-04-29, 03:29:04,VALID,1006.04,VALID,0,VALID,95.7871,VALID,0.105969,VALID,23.5381,VALID,54,VALID,0,
2008-04-29, 03:30:04,VALID,1006.07,VALID,0,VALID,95.81,VALID,0,VALID,23.4974,VALID,54,VALID,0,
2008-04-29, 03:31:04,VALID,1006.1,VALID,0,VALID,95.7871,VALID,0,VALID,23.5381,VALID,54,VALID,0,
2008-04-29, 03:32:04,VALID,1006.1,VALID,0,VALID,95.8328,VALID,0.105969,VALID,23.5186,VALID,54,VALID,0,
2008-04-29, 03:33:04,VALID,1006.14,VALID,0,VALID,95.8557,VALID,0.105969,VALID,23.5186,VALID,54,VALID,0,
2008-04-29, 03:34:04,VALID,1006.15,VALID,0,VALID,95.871,VALID,0,VALID,23.5381,VALID,54,VALID,0,
2008-04-29, 03:35:04,VALID,1006.14,VALID,0,VALID,95.8939,VALID,0,VALID,23.5381,VALID,54,VALID,0,
2008-04-29, 03:36:04,VALID,1006.14,VALID,0,VALID,95.8862,VALID,0.105969,VALID,23.5576,VALID,54,VALID,0,
2008-04-29, 03:37:04,VALID,1006.15,VALID,0,VALID,95.8633,VALID,0,VALID,23.5576,VALID,54,VALID,0.108594,
2008-04-29, 03:38:04,VALID,1006.16,VALID,0,VALID,95.8405,VALID,0.105969,VALID,23.5576,VALID,54,VALID,0,
2008-04-29, 03:39:04,VALID,1006.21,VALID,0,VALID,95.8405,VALID,0,VALID,23.5186,VALID,54,VALID,0,
2008-04-29, 03:40:04,VALID,1006.22,VALID,0,VALID,95.8176,VALID,0.105969,VALID,23.5186,VALID,54,VALID,0,
2008-04-29, 03:41:04,VALID,1006.23,VALID,0,VALID,95.8557,VALID,0.105969,VALID,23.5169,VALID,54,VALID,0,
2008-04-29, 03:42:04,VALID,1006.25,VALID,0,VALID,95.8786,VALID,0.105969,VALID,23.5169,VALID,54,VALID,0,
2008-04-29, 03:43:04,VALID,1006.28,VALID,0,VALID,95.8786,VALID,0.105969,VALID,23.4974,VALID,54,VALID,0,
2008-04-29, 03:44:04,VALID,1006.26,VALID,0,VALID,95.9015,VALID,0,VALID,23.5771,VALID,54,VALID,0,
2008-04-29, 03:45:04,VALID,1006.25,VALID,0,VALID,95.9396,VALID,0,VALID,23.5576,VALID,54,VALID,0.231641,
2008-04-29, 03:46:04,VALID,1006.24,VALID,0,VALID,95.9091,VALID,0.105969,VALID,23.5363,VALID,54,VALID,0.357031,
2008-04-29, 03:47:04,VALID,1006.26,VALID,0,VALID,95.9244,VALID,0,VALID,23.5576,VALID,54,VALID,0.360938,